Weather History for Everett, WA

Change the Weather History Date:

Tuesday, July 2, 2013

  Actual Average Record
Temperature  
Mean Temperature 64 °F -  
Max Temperature 72 °F 68 °F 84 °F (1968)
Min Temperature 57 °F 53 °F 41 °F (1971)
Degree Days  
Heating Degree Days 1    
Growing Degree Days 14 (Base 50)    
Moisture  
Dew Point 54 °F    
Average Humidity 75    
Maximum Humidity 94    
Minimum Humidity 52    
Precipitation  
Precipitation 0.00 in - - ()
Sea Level Pressure  
Sea Level Pressure 30.10 in    
Wind  
Wind Speed 6 mph (NNE)    
Max Wind Speed 13 mph    
Max Gust Speed 18 mph    
Visibility 8 miles    
Events Fog    
Averages and records for this station are not official NWS values.
T = Trace of Precipitation, MM = Missing Value Source: NWS Daily Summary

Daily Weather History Graph

Daily Weather History Graph

Search for Another Location

Airport:

Trip Planner

Search our weather history database for the weather conditions in past years. The results will help you decide how hot, cold, wet, or windy it might be!

Date:

Astronomy

Jul. 02, 2013 Rise Set
Actual Time 5:14 AM PDT 9:11 PM PDT
Civil Twilight 4:34 AM PDT 9:51 PM PDT
Nautical Twilight 3:38 AM PDT 10:47 PM PDT
Astronomical Twilight 2:08 AM PDT 12:16 AM PDT
Moon 1:33 AM PDT (7/2) 4:19 PM PDT (7/2)
Length of Visible Light 17h 17m
Length of Day
15h 56m
Waning Crescent, 25% of the Moon is Illuminated
Jul 2
Waning Crescent
Jul 8
New
Jul 15
First Quarter
Jul 22
Full
Jul 29
Last Quarter

Hourly Weather History & Observations

Time (PDT) Temp. Dew Point Humidity Pressure Visibility Wind Dir Wind Speed Gust Speed Precip Events Conditions
12:53 AM 59.0 °F 55.0 °F 87% 30.06 in 10.0 mi North 6.9 mph - N/A   Clear
1:53 AM 60.1 °F 55.0 °F 83% 30.07 in 10.0 mi NNE 4.6 mph - N/A   Clear
2:53 AM 60.1 °F 54.0 °F 80% 30.09 in 10.0 mi ENE 3.5 mph - N/A   Clear
3:53 AM 59.0 °F 53.1 °F 81% 30.08 in 10.0 mi Calm Calm - N/A   Clear
4:53 AM 57.0 °F 54.0 °F 89% 30.08 in 10.0 mi NNW 4.6 mph - N/A   Clear
5:22 AM 57.2 °F 53.6 °F 88% 30.09 in 10.0 mi North 5.8 mph - N/A   Scattered Clouds
5:31 AM 57.2 °F 55.4 °F 94% 30.09 in 10.0 mi North 6.9 mph - N/A   Mostly Cloudy
5:53 AM 57.0 °F 55.0 °F 93% 30.08 in 7.0 mi NNE 6.9 mph - N/A   Overcast
6:00 AM 57.2 °F 55.4 °F 94% 30.09 in 5.0 mi NNE 5.8 mph - N/A   Overcast
6:28 AM 57.2 °F 55.4 °F 94% 30.09 in 2.0 mi North 5.8 mph - N/A   Overcast
7:07 AM 57.2 °F 55.4 °F 94% 30.11 in 4.0 mi Variable 3.5 mph - N/A   Overcast
7:17 AM 57.2 °F 55.4 °F 94% 30.11 in 1.8 mi North 6.9 mph - N/A   Overcast
7:25 AM 57.2 °F 55.4 °F 94% 30.11 in 0.5 mi NNE 6.9 mph - N/A Fog Fog
7:53 AM 57.9 °F 55.0 °F 90% 30.12 in 0.5 mi NNE 4.6 mph - N/A Fog Fog
8:29 AM 59.0 °F 55.4 °F 88% 30.13 in 1.0 mi North 4.6 mph - N/A   Overcast
8:53 AM 62.1 °F 55.9 °F 80% 30.12 in 10.0 mi NE 3.5 mph - N/A   Mostly Cloudy
9:00 AM 62.6 °F 55.4 °F 77% 30.13 in 10.0 mi North 3.5 mph - N/A   Scattered Clouds
9:53 AM 64.0 °F 55.9 °F 75% 30.11 in 10.0 mi NNE 3.5 mph - N/A   Clear
10:53 AM 69.1 °F 57.0 °F 65% 30.12 in 10.0 mi Variable 4.6 mph - N/A   Clear
11:53 AM 69.1 °F 57.9 °F 68% 30.12 in 9.0 mi WNW 5.8 mph - N/A   Clear
12:53 PM 70.0 °F 57.9 °F 65% 30.12 in 10.0 mi Variable 5.8 mph - N/A   Clear
1:53 PM 71.1 °F 55.0 °F 57% 30.13 in 10.0 mi NNE 8.1 mph - N/A   Clear
2:53 PM 68.0 °F 54.0 °F 61% 30.14 in 10.0 mi North 10.4 mph 18.4 mph N/A   Clear
3:53 PM 69.1 °F 52.0 °F 54% 30.13 in 10.0 mi North 8.1 mph - N/A   Clear
4:53 PM 68.0 °F 50.0 °F 52% 30.12 in 10.0 mi North 9.2 mph 16.1 mph N/A   Clear
5:53 PM 68.0 °F 51.1 °F 55% 30.11 in 10.0 mi North 8.1 mph - N/A   Clear
6:53 PM 66.9 °F 48.9 °F 52% 30.09 in 10.0 mi North 12.7 mph 18.4 mph N/A   Clear
7:53 PM 66.0 °F 50.0 °F 56% 30.08 in 10.0 mi NNE 8.1 mph - N/A   Clear
8:53 PM 63.0 °F 50.0 °F 63% 30.08 in 10.0 mi NNE 9.2 mph 17.3 mph N/A   Clear
9:53 PM 62.1 °F 48.9 °F 62% 30.09 in 10.0 mi NNE 9.2 mph - N/A   Clear
10:53 PM 61.0 °F 48.9 °F 64% 30.10 in 10.0 mi NNE 9.2 mph 16.1 mph N/A   Clear
11:53 PM 60.1 °F 46.9 °F 62% 30.11 in 10.0 mi NNE 9.2 mph - N/A   Clear